Location: Davidschlag
(48.4333°N, 14.2833°E)
Time: 20:13:36
(UTC+00:00)

STARLINK-25 - Pass Details

Date: 27 February 2020
Orbit: 529 x 530 km, 53.0° (Epoch: 03 April)

Event Time Altitude Azimuth Distance (km) Brightness Sun altitude
Rises 18:45:48 0° 288° (WNW) 2,671 8.7 -21.1°
Reaches altitude 10° 18:48:05 10° 295° (WNW) 1,781 7.3 -21.5°
Maximum altitude 18:51:59 46° 10° (N) 718 4.1 -22.1°
Enters shadow 18:52:09 46° 18° (NNE) 721 4.1 -22.1°
